Temp
10 10 11 12 12 12 12 12 12 12 12 12 12 12 12 12 13 14 12 18 16 16 16 17 17 17 17 19 22 24 25 25 27 28 30 32 33 34 33 32 32 32 32 32 31
10 10 10 10 10 10 11 12 12 12 12 12 12 12 12 12 13 15 18 16 15 14 15 14 18 19 19 20 22 25 25 25 28 30 30 32 32 33 32 31 31 31 31 31 30
9 9 9 9 10 10 10 10 10 11 11 12 12 12 11 11 9 17 18 18 17 14 14 15 17 20 21 21 22 23 24 26 28 29 30 31 32 32 32 31 30 31 31 30 30
9 9 10 10 10 10 10 10 10 10 10 9 9 9 10 9 17 18 18 18 17 15 14 15 16 19 22 23 23 24 25 26 27 28 29 30 30 31 31 31 30 30 30 30 30
9 10 10 11 11 11 11 11 11 11 11 11 10 5 3 7 10 17 16 16 15 15 14 16 17 19 21 23 24 24 25 26 26 27 27 28 29 30 30 30 30 30 30 30 29
8 8 8 9 10 10 11 11 12 12 11 10 9 7 4 7 16 17 16 14 13 13 14 15 17 19 21 23 24 25 26 27 27 27 27 28 28 29 29 29 29 29 29 29 28
7 7 7 7 8 8 9 10 11 10 10 9 8 3 4 10 15 15 15 15 14 16 16 17 17 19 22 22 24 25 25 27 28 27 27 27 27 28 28 28 28 29 28 28 27
7 8 8 8 8 8 9 10 10 9 8 9 8 4 6 12 11 12 13 14 15 16 16 17 18 19 20 21 23 24 25 24 26 27 28 27 26 28 28 28 28 28 28 28 28
7 8 9 8 9 9 9 10 10 9 8 7 5 4 9 13 13 14 12 14 15 15 15 16 17 18 19 20 20 22 23 23 24 27 28 27 26 28 28 28 28 28 28 28 28
7 7 8 9 9 9 9 10 10 10 8 6 6 6 8 14 15 15 15 14 14 15 16 15 16 16 18 19 19 20 22 23 24 26 27 27 27 27 28 28 28 28 27 27 27
7 7 8 9 8 8 9 8 10 10 10 9 10 10 11 12 13 13 14 15 15 15 16 17 15 15 17 19 21 22 23 23 25 26 27 27 27 28 28 28 29 28 28 27 27
7 8 8 8 8 8 9 9 9 8 9 10 11 11 12 13 14 14 14 14 16 15 16 16 15 17 19 20 20 20 21 23 25 27 27 26 27 28 28 28 29 29 28 27 27
7 8 7 8 8 9 10 9 9 8 8 10 14 14 14 13 14 15 15 14 15 15 15 14 16 18 18 18 19 20 20 21 23 25 27 27 26 27 29 29 28 29 28 28 27
7 8 7 6 8 8 9 9 9 7 8 15 14 11 14 14 13 13 14 15 15 14 14 14 16 16 17 17 18 17 21 22 22 23 23 27 25 26 27 27 27 28 29 29 28
7 7 7 7 7 9 9 9 9 7 9 14 14 14 14 14 14 14 13 13 14 15 15 14 14 15 16 16 18 18 20 21 22 22 22 24 24 26 27 26 26 28 28 28 28
7 8 7 7 8 9 9 9 9 9 9 14 13 13 12 13 13 13 13 13 11 11 10 11 15 15 15 16 18 19 18 20 21 22 20 22 24 25 27 26 26 27 29 28 28
8 8 7 7 9 9 9 11 11 10 13 11 11 12 11 11 14 10 13 11 8 10 10 12 13 15 16 15 17 17 16 14 17 18 19 22 22 24 27 28 28 28 28 28 28
8 8 9 9 9 9 10 13 10 11 10 11 11 13 11 14 14 14 11 9 8 8 10 9 11 14 16 15 16 17 15 12 14 16 18 21 21 23 27 28 28 29 29 28 27
8 8 11 9 9 9 12 11 10 10 11 10 10 11 12 12 12 13 8 7 9 7 8 9 12 12 14 17 17 17 16 17 16 18 18 20 22 25 27 27 29 29 28 28 27
8 9 11 9 9 10 11 8 11 12 12 12 8 9 8 10 10 11 11 13 13 15 14 12 10 13 12 11 15 18 19 15 15 12 13 15 21 23 25 26 28 29 28 28 27
8 11 11 10 10 12 9 10 11 12 13 11 11 9 8 8 10 10 12 14 12 13 14 12 11 12 13 13 14 16 17 18 16 14 12 14 17 24 25 26 27 29 28 27 27
6 12 11 10 13 13 11 11 11 13 13 12 11 10 8 9 10 9 11 12 14 13 11 10 8 8 10 11 11 11 14 17 15 12 12 11 16 23 25 27 27 26 23 22 20
7 11 11 9 10 10 11 12 13 13 12 11 10 10 9 9 7 9 11 13 12 10 9 10 10 8 9 9 12 11 14 14 16 15 13 11 15 19 21 25 22 18 16 16 17
8 11 10 9 9 9 9 10 13 13 10 10 9 9 7 6 8 8 9 11 9 10 9 9 9 8 9 9 8 12 14 15 15 13 14 13 14 16 16 17 17 15 15 15 15
8 10 7 8 8 8 9 12 11 10 10 9 7 8 5 4 5 7 9 8 7 9 9 9 8 11 12 14 12 12 15 15 15 16 15 17 17 16 16 15 15 15 14 14 14
4 3 4 4 6 9 11 11 10 10 9 7 5 5 4 4 4 5 5 5 4 6 8 7 8 10 11 14 15 13 14 14 16 17 17 12 13 13 13 14 15 14 15 14 14
2 2 1 3 8 9 11 9 10 9 8 8 6 5 5 6 6 5 6 5 5 4 5 6 8 8 11 14 12 12 14 15 17 18 14 11 12 10 11 13 14 14 13 12 11
Height
1514 1511 1509 1506 1502 1498 1494 1491 1488 1484 1481 1478 1475 1472 1468 1464 1460 1458 1451 1447 1449 1450 1454 1455 1460 1460 1463 1462 1461 1461 1458 1447 1440 1435 1426 1421 1419 1416 1419 1424 1430 1434 1436 1441 1445
1513 1510 1506 1502 1499 1496 1493 1490 1487 1482 1478 1474 1471 1467 1464 1460 1454 1443 1441 1438 1441 1444 1449 1451 1454 1456 1457 1455 1456 1453 1446 1437 1433 1427 1424 1420 1418 1415 1419 1428 1433 1436 1437 1440 1444
1513 1509 1504 1500 1496 1492 1488 1484 1480 1477 1474 1472 1469 1464 1460 1458 1452 1438 1434 1434 1432 1437 1445 1449 1452 1452 1450 1450 1448 1446 1429 1432 1428 1427 1422 1418 1415 1414 1417 1424 1431 1433 1434 1440 1443
1512 1508 1504 1500 1495 1490 1486 1482 1477 1471 1465 1461 1459 1457 1457 1459 1451 1434 1432 1432 1432 1434 1441 1444 1447 1446 1441 1438 1440 1436 1429 1431 1428 1424 1422 1419 1419 1414 1415 1423 1427 1432 1433 1437 1440
1512 1507 1503 1498 1493 1488 1484 1479 1474 1470 1466 1461 1456 1454 1455 1455 1436 1433 1430 1429 1431 1432 1435 1438 1439 1439 1433 1431 1431 1422 1424 1424 1425 1425 1422 1422 1417 1417 1415 1420 1426 1428 1429 1433 1435
1510 1505 1501 1496 1492 1486 1481 1476 1471 1466 1461 1456 1452 1451 1454 1446 1427 1431 1430 1427 1430 1430 1433 1435 1434 1434 1431 1426 1421 1420 1419 1415 1416 1415 1416 1416 1416 1415 1415 1420 1422 1427 1429 1431 1435
1505 1500 1494 1489 1484 1478 1473 1469 1464 1459 1456 1451 1448 1446 1446 1421 1424 1423 1427 1427 1427 1428 1429 1430 1432 1430 1425 1422 1417 1414 1414 1405 1400 1406 1405 1415 1411 1401 1411 1418 1419 1420 1426 1430 1435
1503 1497 1490 1484 1477 1471 1464 1458 1452 1450 1448 1445 1442 1444 1432 1418 1419 1418 1421 1423 1424 1424 1425 1426 1427 1425 1423 1421 1414 1410 1406 1406 1388 1396 1396 1410 1395 1396 1407 1410 1412 1416 1421 1426 1429
1501 1494 1487 1481 1473 1466 1458 1452 1448 1443 1441 1441 1439 1440 1430 1417 1413 1412 1416 1418 1421 1421 1423 1423 1423 1421 1422 1420 1420 1407 1400 1392 1395 1385 1391 1393 1379 1395 1398 1400 1405 1410 1415 1419 1424
1498 1491 1484 1478 1470 1463 1457 1449 1442 1438 1438 1439 1440 1444 1424 1415 1414 1412 1419 1416 1416 1417 1416 1419 1423 1421 1418 1409 1404 1394 1393 1387 1387 1382 1384 1386 1378 1388 1390 1392 1394 1402 1408 1413 1417
1496 1489 1482 1475 1468 1464 1455 1451 1446 1442 1441 1441 1437 1427 1423 1415 1414 1411 1412 1411 1411 1412 1408 1408 1416 1408 1390 1390 1382 1384 1385 1382 1376 1374 1375 1374 1370 1375 1382 1384 1384 1390 1398 1404 1409
1494 1486 1478 1471 1465 1461 1458 1457 1457 1458 1434 1426 1421 1418 1408 1405 1404 1403 1403 1405 1403 1403 1404 1405 1401 1394 1394 1390 1391 1389 1386 1379 1368 1360 1364 1366 1361 1360 1370 1374 1377 1382 1388 1394 1402
1492 1485 1477 1470 1466 1463 1462 1461 1456 1452 1445 1416 1411 1410 1408 1408 1403 1397 1397 1398 1397 1396 1398 1400 1392 1389 1393 1388 1386 1376 1381 1380 1374 1360 1349 1350 1359 1356 1356 1365 1370 1373 1380 1386 1390
1491 1483 1477 1472 1470 1464 1462 1460 1456 1452 1443 1412 1414 1416 1410 1406 1404 1399 1395 1395 1392 1392 1398 1394 1390 1388 1380 1381 1385 1382 1372 1370 1373 1371 1362 1345 1362 1350 1348 1360 1367 1369 1371 1374 1381
1490 1484 1479 1473 1468 1465 1463 1458 1455 1453 1436 1420 1416 1415 1409 1403 1398 1392 1396 1396 1392 1384 1389 1385 1388 1383 1378 1376 1373 1373 1369 1366 1364 1366 1366 1353 1356 1344 1340 1355 1360 1358 1359 1369 1373
1489 1484 1479 1474 1471 1467 1461 1457 1455 1450 1439 1421 1424 1416 1410 1404 1397 1393 1392 1395 1397 1400 1396 1394 1379 1379 1376 1372 1368 1370 1374 1366 1361 1359 1362 1354 1352 1343 1336 1341 1347 1349 1355 1362 1367
1488 1484 1477 1473 1470 1465 1461 1456 1449 1449 1440 1435 1426 1420 1417 1409 1398 1401 1389 1393 1401 1400 1392 1383 1371 1372 1371 1372 1366 1368 1371 1384 1371 1359 1355 1344 1349 1339 1327 1329 1331 1340 1346 1358 1366
1487 1483 1477 1477 1471 1464 1457 1450 1452 1451 1450 1445 1436 1418 1417 1405 1398 1394 1399 1400 1391 1398 1390 1389 1376 1363 1357 1354 1360 1358 1369 1380 1369 1361 1356 1338 1341 1333 1320 1322 1327 1333 1341 1352 1362
1486 1482 1481 1476 1472 1464 1458 1455 1456 1454 1451 1444 1435 1423 1414 1413 1409 1397 1407 1406 1397 1399 1398 1388 1369 1366 1361 1350 1352 1349 1354 1356 1363 1345 1346 1342 1332 1328 1319 1316 1320 1320 1329 1343 1356
1487 1481 1479 1476 1472 1468 1466 1472 1458 1453 1449 1445 1447 1438 1432 1422 1415 1406 1396 1388 1387 1382 1382 1380 1376 1361 1361 1363 1352 1340 1336 1358 1358 1380 1368 1361 1326 1323 1316 1312 1312 1311 1320 1334 1348
1488 1482 1478 1475 1471 1467 1468 1466 1459 1453 1446 1444 1438 1440 1438 1429 1419 1413 1400 1386 1388 1388 1382 1379 1377 1363 1363 1358 1354 1344 1336 1338 1349 1363 1373 1363 1341 1303 1304 1309 1309 1307 1315 1329 1344
1491 1484 1478 1476 1464 1466 1465 1464 1457 1446 1443 1442 1440 1438 1438 1426 1417 1415 1401 1397 1387 1387 1386 1386 1388 1377 1361 1359 1359 1355 1343 1333 1350 1363 1368 1377 1345 1303 1300 1303 1308 1311 1318 1332 1347
1495 1484 1480 1479 1476 1472 1468 1459 1451 1443 1443 1442 1440 1438 1434 1427 1423 1410 1399 1394 1392 1396 1395 1390 1381 1381 1363 1357 1349 1349 1338 1339 1333 1343 1357 1379 1343 1312 1319 1305 1307 1330 1342 1348 1359
1496 1485 1483 1480 1480 1481 1471 1459 1444 1445 1448 1444 1441 1436 1432 1430 1424 1410 1402 1396 1396 1393 1392 1391 1381 1380 1369 1361 1362 1343 1334 1332 1337 1350 1355 1354 1352 1333 1325 1310 1317 1336 1350 1357 1367
1503 1495 1498 1485 1481 1481 1471 1454 1447 1445 1447 1442 1438 1435 1439 1429 1418 1405 1397 1400 1396 1391 1388 1384 1377 1362 1351 1340 1344 1341 1329 1329 1334 1330 1342 1337 1329 1336 1329 1309 1329 1337 1347 1358 1371
1512 1511 1505 1497 1486 1474 1459 1458 1455 1449 1447 1441 1444 1437 1433 1428 1422 1406 1407 1407 1402 1393 1388 1386 1372 1361 1352 1334 1324 1336 1332 1329 1321 1329 1333 1352 1351 1351 1333 1329 1343 1347 1353 1362 1375
1512 1509 1507 1497 1483 1473 1463 1464 1453 1450 1445 1443 1440 1431 1424 1417 1411 1402 1398 1397 1397 1395 1394 1391 1377 1371 1350 1332 1336 1330 1310 1315 1317 1323 1344 1359 1357 1357 1352 1347 1345 1355 1361 1374 1386
Wind_Speed
23 22 20 17 18 20 21 20 19 19 19 21 21 22 24 27 30 29 33 31 21 16 20 11 14 16 19 23 26 26 16 18 27 27 21 22 19 25 10 10 16 23 18 8 9
24 24 24 24 23 23 20 18 18 21 23 24 25 25 26 27 31 37 30 29 27 28 21 21 18 18 24 21 28 20 17 30 24 23 23 25 24 25 7 8 15 21 10 19 11
25 25 26 27 27 27 27 27 27 27 26 26 26 28 29 23 26 8 11 12 11 28 24 21 21 21 27 28 27 29 29 24 25 32 33 24 22 20 13 14 21 23 19 22 18
25 26 26 26 26 26 26 27 30 33 36 35 32 29 23 16 7 8 15 9 6 13 21 24 26 29 25 26 32 27 33 33 31 32 28 21 29 21 16 17 14 22 20 24 25
25 26 26 27 28 28 28 29 30 29 29 32 33 24 14 12 27 17 21 23 16 8 20 26 28 29 27 25 29 31 28 35 37 33 34 30 26 22 25 17 21 16 16 25 11
26 26 26 26 26 26 26 27 26 27 30 33 34 28 15 21 11 11 13 23 12 11 17 23 19 27 26 26 29 29 31 31 35 35 32 25 24 26 28 25 23 27 16 11 17
33 35 37 38 38 37 35 32 27 23 26 34 35 20 21 41 11 15 9 17 19 21 23 22 25 27 23 22 31 34 29 27 29 33 30 31 27 31 28 29 29 27 27 21 22
36 38 40 41 41 40 40 36 28 22 21 20 26 11 18 25 18 21 19 17 16 18 21 24 23 30 31 29 29 25 24 26 30 28 30 28 35 28 33 30 28 30 27 32 28
39 41 42 43 41 39 34 27 26 23 15 13 10 12 14 9 8 7 18 25 22 25 24 19 22 25 24 21 19 22 25 33 28 29 28 26 37 24 31 35 30 29 31 30 31
40 42 43 41 39 28 28 22 30 21 5 7 10 8 20 9 14 13 13 13 18 20 24 27 20 17 19 19 23 26 32 27 28 24 27 28 30 24 29 31 32 32 33 32 32
41 41 42 40 33 23 29 25 36 3 18 28 30 30 42 47 35 36 31 27 19 17 20 24 17 23 37 32 33 29 27 29 28 27 25 27 31 25 24 28 24 34 35 35 36
40 41 40 34 22 23 20 26 24 22 30 34 31 32 34 33 35 26 19 27 26 23 21 21 24 30 28 28 31 33 33 31 28 27 27 27 29 26 25 24 26 24 34 35 33
40 41 32 32 16 19 21 27 23 22 13 24 8 14 16 21 25 13 10 16 21 21 23 26 28 30 30 31 31 31 31 29 30 26 28 24 27 23 26 25 29 29 34 35 40
40 34 29 25 19 22 26 25 19 20 5 13 10 6 19 23 8 16 15 9 16 22 23 22 24 28 28 30 29 30 31 30 31 27 21 21 16 22 23 21 23 26 28 31 36
37 26 29 19 23 27 27 21 14 8 6 11 27 22 31 27 28 28 11 10 21 17 11 21 24 21 26 28 25 26 30 30 31 27 25 30 17 17 21 21 23 24 32 29 35
30 20 21 17 18 22 19 16 10 4 7 14 26 23 24 22 20 17 6 11 12 12 3 18 23 19 17 16 22 25 27 30 28 23 22 26 23 20 18 24 27 25 28 31 30
24 16 16 17 23 19 18 17 4 13 20 21 24 27 14 15 17 3 15 3 6 8 10 14 12 17 21 19 22 19 20 13 20 18 18 24 25 19 26 24 27 26 30 30 28
20 13 17 15 15 18 21 11 5 17 18 23 25 21 3 21 21 21 18 13 5 9 6 6 7 19 16 29 22 24 23 9 24 17 19 22 28 26 25 25 29 29 31 32 31
17 12 12 13 16 19 18 6 7 11 14 20 23 14 15 20 18 24 6 5 3 6 4 5 6 9 31 20 23 23 18 23 24 21 17 20 22 27 24 28 21 23 33 34 35
20 15 10 14 18 16 7 6 11 13 14 18 10 12 22 21 16 23 8 10 11 19 12 10 12 6 8 11 23 26 17 21 8 8 23 10 27 19 29 26 18 18 24 38 36
14 12 8 17 19 11 3 10 18 19 20 15 20 15 18 22 16 23 13 16 6 21 17 13 5 10 14 7 15 14 19 18 10 12 5 7 12 27 23 26 17 18 27 34 36
11 6 16 20 10 11 10 17 21 20 21 17 9 13 15 23 25 25 19 22 25 19 16 5 4 8 17 16 13 18 23 19 11 16 10 5 6 10 26 20 18 7 31 39 40
14 18 9 15 7 11 16 16 18 17 18 19 9 18 24 23 12 14 23 27 31 15 10 9 3 7 6 5 13 8 24 20 22 5 15 5 9 13 17 28 25 26 32 37 36
11 6 11 14 20 15 16 19 19 22 17 16 22 23 15 11 21 16 29 11 25 25 23 13 11 16 10 11 6 10 9 14 12 8 14 13 19 21 23 26 25 31 34 37 37
11 6 10 7 15 17 20 20 25 24 19 24 8 13 20 11 22 20 19 27 20 12 7 4 7 16 18 19 12 17 12 16 19 20 14 7 11 8 10 25 22 34 37 39 38
12 8 14 23 20 18 16 21 21 20 22 14 8 19 16 16 17 24 15 7 5 11 7 5 5 15 16 15 8 13 16 17 22 18 20 9 7 14 8 25 24 32 34 35 36
10 12 7 13 19 15 14 22 26 22 12 24 21 20 16 17 26 35 34 30 17 7 7 6 4 5 6 13 18 12 21 20 18 16 11 4 3 8 4 12 23 30 34 38 39
Wind_Direction
4 2 359 356 351 346 343 337 331 326 320 315 310 306 303 302 299 294 274 270 262 257 236 230 239 225 222 235 228 226 245 244 243 248 249 258 266 266 250 229 245 255 246 242 192
360 356 352 348 345 341 335 329 324 322 319 316 313 310 308 309 308 298 293 274 255 242 234 218 222 213 216 223 231 225 235 236 246 251 253 260 262 258 211 219 236 240 204 196 185
353 349 346 342 339 335 331 327 324 320 316 310 307 308 310 318 316 260 284 289 270 238 225 225 226 233 228 224 221 232 236 242 243 250 265 271 274 265 225 224 213 241 192 218 209
347 342 340 336 332 328 326 323 321 318 315 312 310 308 304 312 281 273 265 263 287 213 212 217 222 229 233 229 225 235 237 242 253 264 273 266 269 274 224 233 212 225 217 223 225
345 340 338 336 333 329 325 321 317 310 305 303 302 303 315 265 252 265 274 280 272 218 206 207 218 228 236 235 234 234 242 241 243 250 259 267 269 247 268 213 233 244 225 214 212
348 342 339 336 333 328 322 316 310 303 300 296 294 293 276 263 292 284 274 241 227 216 216 214 223 225 246 238 244 242 246 245 246 243 246 251 254 257 238 248 233 228 224 207 190
351 347 344 342 341 336 330 325 320 294 282 283 285 276 259 248 234 248 275 236 233 235 237 232 236 247 243 252 251 248 260 253 237 240 243 245 259 240 234 231 238 221 224 207 215
349 345 342 341 338 335 331 330 324 312 295 285 279 248 253 271 272 262 256 252 238 234 241 240 240 245 251 263 269 253 251 245 240 244 234 230 248 236 236 230 226 227 220 226 213
347 343 341 341 340 337 337 346 345 321 297 297 261 209 263 301 279 280 242 245 245 248 257 247 246 253 252 245 253 247 240 234 241 237 235 216 244 241 240 216 225 216 225 216 220
346 342 341 343 343 346 351 354 353 315 314 253 243 211 244 284 288 289 289 258 248 251 251 227 236 243 236 227 221 223 231 240 246 234 238 230 240 234 241 238 209 217 209 219 217
345 343 343 345 345 353 347 355 359 337 322 298 283 269 283 282 278 279 277 253 235 232 240 220 220 225 222 221 231 239 238 240 238 238 250 224 242 226 227 243 223 205 213 210 218
345 344 344 350 353 356 353 360 352 321 311 300 280 265 270 276 268 275 253 253 248 234 234 244 215 233 243 238 235 245 249 255 259 242 225 236 237 227 220 223 242 215 204 214 211
346 346 352 358 7 7 352 346 340 336 302 304 308 360 1 352 330 304 272 232 251 230 235 241 238 232 241 248 248 243 236 250 254 252 252 226 235 230 212 224 223 230 213 208 206
347 350 0 4 13 350 351 343 337 340 297 55 35 347 332 311 313 281 305 282 232 245 213 238 252 265 249 231 240 249 248 239 244 251 250 238 235 224 205 213 243 226 222 208 203
350 359 7 11 334 347 339 341 337 345 356 8 359 340 335 327 330 318 244 249 255 226 241 251 251 243 252 255 247 250 244 247 243 239 253 252 243 235 194 202 222 217 212 220 199
355 7 355 358 349 339 344 345 329 291 355 353 347 348 354 356 342 338 282 248 206 296 24 262 284 280 302 288 274 233 257 249 249 242 234 235 244 220 219 201 213 226 217 208 199
355 2 344 338 332 337 338 327 291 21 349 344 339 332 342 316 359 321 322 198 211 233 234 254 269 250 249 259 244 242 252 240 227 229 235 216 238 241 206 232 206 210 207 204 200
354 349 359 336 342 335 325 298 8 358 358 337 332 316 341 2 344 2 1 342 44 314 283 264 257 247 234 222 229 228 219 216 227 216 230 236 219 229 239 207 232 207 204 192 195
4 348 343 344 340 334 327 31 4 342 338 333 333 334 343 347 339 337 40 275 186 141 10 307 279 317 258 221 221 230 217 232 243 258 231 223 232 229 230 237 207 215 191 185 183
348 331 344 343 333 329 13 308 341 341 334 333 325 323 324 331 332 341 356 307 343 355 360 327 300 66 285 344 285 238 240 216 196 218 238 251 216 216 210 227 217 209 177 183 180
344 315 350 335 321 305 346 339 321 313 323 334 310 300 305 308 315 319 311 325 12 329 347 341 309 288 315 237 257 247 232 230 204 234 262 244 250 205 204 223 217 192 176 162 162
331 318 340 341 328 7 350 328 308 310 342 334 316 302 305 303 304 306 307 314 321 349 338 23 294 289 299 304 244 273 263 229 211 213 201 293 276 276 215 214 186 108 107 114 121
320 313 353 347 5 339 319 326 316 327 355 326 301 318 309 300 307 308 306 319 315 350 336 335 301 311 287 282 231 232 235 247 244 208 234 183 266 346 338 227 121 108 106 112 118
315 322 338 327 3 344 324 308 322 352 341 324 310 304 309 314 306 300 303 313 327 327 307 293 254 247 259 279 251 274 221 237 185 202 240 202 265 290 321 117 116 119 125 121 122
350 8 349 307 330 313 293 293 342 336 328 317 307 322 322 300 304 291 318 316 319 309 345 279 260 270 293 292 216 244 264 225 225 220 223 245 279 317 229 117 123 128 124 122 123
352 351 320 303 312 295 316 348 327 320 333 328 307 305 295 289 288 296 313 301 253 296 322 326 277 320 307 297 311 276 282 274 231 228 233 56 342 15 248 119 127 123 123 121 122
334 324 281 300 317 325 332 323 322 334 329 321 319 311 305 302 298 288 281 271 249 242 285 300 293 314 283 329 326 291 229 236 202 205 116 216 195 351 320 128 115 110 108 110 114